Location: Ammerl�gen
(47.2167°N, 9.6000°E)
Time: 05:55:58
(UTC+00:00)

Cosmos 405 Rocket - Pass Details

Date: 21 April 2021
Orbit: 489 x 553 km, 81.3° (Epoch: 15 May)

Event Time Altitude Azimuth Distance (km) Brightness Sun altitude
Rises 18:48:49 0° 356° (N) 2,727 6.8 -5.5°
Reaches altitude 10° 18:51:10 10° 5° (N) 1,820 5.7 -5.9°
Maximum altitude 18:54:52 35° 72° (ENE) 886 3.5 -6.4°
Drops below altitude 10° 18:58:28 10° 139° (SE) 1,774 4.8 -7.0°
Enters shadow 18:59:15 - 144° (SE) 2,071 5.2 -7.1°
